This demonstration page uses our WeatherBlox Daily Observations layout. Learn more.

Left ArrowRight Arrow

Hourly Observations for September 11, 2020

Temp ( °F °C ) Dew Point ( °F °C ) Humidity (%) Winds ( mph kmh ) Pressure ( in mb ) Visibility ( mi km ) Precip ( " mm )
12:52 am 00:52 Cloudy 53 11.7 51 10.6 93 93 ENE 5 7 30.30 1026 10 16 0.00 0.00
1:52 am 01:52 Cloudy with Drizzle 54 12.2 52 11.1 93 93 NE 7 11 30.29 1026 10 16 0.00 0.00
2:52 am 02:52 Cloudy with Drizzle 53 11.7 52 11.1 96 96 N 3 6 30.28 1026 6 10 0.00 0.00
3:52 am 03:52 Cloudy with Drizzle 53 11.7 52 11.1 96 96 N 5 7 30.27 1025 6 10 0.00 0.00
4:52 am 04:52 Cloudy with Drizzle 53 11.7 52 11.1 96 96 NNW 3 6 30.26 1025 5 8 0.01 0.25
5:23 am 05:23 Cloudy with Drizzle 53 11.7 52 11.1 96 96 N 3 6 30.26 1025 3 4 0.01 0.25
5:34 am 05:34 Cloudy with Light Rain 53 11.7 52 11.1 96 96 NNE 6 9 30.26 1025 3 5 0.01 0.25
5:52 am 05:52 Cloudy with Mist and Fog 53 11.7 52 11.1 96 96 N 5 7 30.25 1024 6 10 0.02 0.51
6:17 am 06:17 Cloudy with Mist and Fog 53 11.7 52 11.1 96 96 N 5 7 30.23 1024 6 10 0.00 0.00
6:52 am 06:52 Cloudy 53 11.7 52 11.1 96 96 NNE 6 9 30.22 1024 10 16 0.00 0.00
7:52 am 07:52 Cloudy 54 12.2 52 11.1 93 93 Calm 30.23 1024 10 16 0.00 0.00
8:52 am 08:52 Cloudy with Drizzle 54 12.2 53 11.7 97 97 ENE 3 6 30.22 1023 5 8 0.00 0.00
9:41 am 09:41 Cloudy with Drizzle 54 12.2 53 11.7 97 97 ESE 3 6 30.22 1023 3 4 0.00 0.00
9:52 am 09:52 Cloudy with Drizzle 54 12.2 53 11.7 97 97 Calm 30.22 1023 3 4 0.00 0.00
10:28 am 10:28 Cloudy with Drizzle 56 13.3 54 12.2 93 93 NE 7 11 30.19 1022 3 5 0.00 0.00
10:45 am 10:45 Cloudy 57 13.9 54 12.2 90 90 ENE 5 7 30.19 1022 10 16 0.01 0.25
10:52 am 10:52 Cloudy 57 13.9 54 12.2 90 90 ENE 6 9 30.19 1022 10 16 0.01 0.25
11:11 am 11:11 Cloudy 56 13.3 54 12.2 93 93 E 5 7 30.19 1022 10 16 0.00 0.00
11:27 am 11:27 Cloudy 57 13.9 54 12.2 90 90 E 6 9 30.18 1022 10 16 0.00 0.00
11:52 am 11:52 Cloudy 57 13.9 54 12.2 90 90 SSE 5 7 30.18 1022 10 16 0.00 0.00
12:52 pm 12:52 Cloudy with Mist and Fog 57 13.9 55 12.8 93 93 VRB 5 7 30.16 1022 6 10 0.00 0.00
1:37 pm 13:37 Cloudy 58 14.4 55 12.8 90 90 SSW 3 6 30.14 1021 7 11 0.00 0.00
1:52 pm 13:52 Cloudy 58 14.4 54 12.2 87 87 S 3 6 30.14 1021 7 11 0.00 0.00
2:52 pm 14:52 Cloudy 59 15 54 12.2 83 83 Calm 30.11 1020 10 16 0.00 0.00
3:52 pm 15:52 Cloudy with Light Rain 60 15.6 55 12.8 84 84 Calm 30.08 1019 7 11 0.00 0.00
4:52 pm 16:52 Cloudy 59 15 55 12.8 87 87 SE 5 7 30.07 1018 7 11 0.00 0.00
5:52 pm 17:52 Cloudy 60 15.6 55 12.8 84 84 SE 5 7 30.06 1018 10 16 0.00 0.00
6:52 pm 18:52 Cloudy 59 15 55 12.8 87 87 SSW 6 9 30.06 1018 7 11 0.00 0.00
7:52 pm 19:52 Cloudy with Mist and Fog 59 15 56 13.3 90 90 WSW 5 7 30.06 1018 6 10 0.00 0.00
8:52 pm 20:52 Cloudy with Mist and Fog 59 15 56 13.3 90 90 S 3 6 30.05 1018 6 10 0.00 0.00
9:52 pm 21:52 Cloudy 59 15 55 12.8 87 87 SW 5 7 30.04 1017 7 11 0.00 0.00
10:52 pm 22:52 Cloudy 59 15 55 12.8 87 87 SW 5 7 30.03 1017 10 16 0.00 0.00
11:52 pm 23:52 Cloudy 59 15 55 12.8 87 87 S 6 9 30.02 1017 10 16 0.00 0.00

Powered by AerisWeather